Location: *
(57.6680°S, 48.3040°W)
Time: 08:41:24
(UTC+00:00)

Daily predictions for brighter satellites

Satellite Brightness Start Highest point End
(mag) Time Altitude Azimuth Time Altitude Azimuth Time Altitude Azimuth
Ariane Rocket 3.0 21:39:27 10° SSE 21:44:38 73° ENE 21:49:45 10° N
Cosmos 724 4.4 21:39:47 10° NNW 21:45:39 65° NE 21:51:42 10° SE
Helios 1B rocket 3.1 21:43:04 10° NE 21:46:58 38° ESE 21:50:54 10° S
Cosmos 1184 Rocket 4.5 21:47:09 10° NE 21:49:25 17° E 21:51:41 10° SE
Cosmos 2278 Rocket 2.4 21:44:17 10° N 21:49:47 51° ENE 21:55:20 10° SE
CZ-2C R/B 3.1 21:45:45 10° SSE 21:51:02 68° WSW 21:56:13 10° NNW
AQUARIUS 4.2 21:46:44 10° SSE 21:51:21 71° ENE 21:55:55 10° N
Cosmos-2242 4.2 21:47:49 10° S 21:51:39 27° ESE 21:55:27 10° ENE
CZ-4 R/B 1.3 21:51:25 10° SSE 21:55:22 68° ENE 21:59:20 10° N
Cosmos 2154 Rocket 4.0 21:51:04 10° S 21:57:27 76° ESE 22:03:43 10° NNE
BREEZE-M DEB (TANK) 4.1 21:55:43 10° NNW 21:57:33 14° N 21:58:59 10° NE
COSMOS 2455 3.8 21:52:55 10° NNE 21:57:47 26° ENE 22:02:39 10° ESE
Meteor 1-21 4.4 21:54:14 10° N 21:59:55 56° E 22:05:36 10° SSE
Cosmos 1066 Rocket 4.4 21:57:01 10° NNW 22:02:51 83° WSW 22:08:36 10° SSE
Cosmos 1833 Rocket 3.5 21:58:17 10° SW 22:03:52 56° WNW 22:09:24 10° NNE
Cosmos 1602 Rocket 3.7 21:59:32 10° N 22:04:01 60° E 22:08:32 10° SSE
Cosmos 1242 Rocket 3.5 22:01:16 10° S 22:04:35 30° ESE 22:07:49 10° NE
Cosmos 2341 Rocket 4.1 21:58:09 10° S 22:04:35 65° ESE 22:10:53 10° NNE
GP-B 4.1 22:00:47 10° NE 22:04:38 28° ESE 22:08:30 10° SSE
CSL-04 Rocket 3.9 22:00:21 10° SSE 22:05:56 82° WSW 22:11:33 10° NNW
Cosmos 1461 3.4 22:03:18 10° SW 22:07:34 50° SSE 22:11:18 12° ENE
NOSS 3-2 (C) 4.1 22:00:01 10° NNW 22:07:45 56° NE 22:14:48 10° SE
Cosmos 1842 3.4 22:04:24 10° N 22:08:15 54° E 22:12:10 10° SSE
Aureole 1 Rocket 4.4 22:04:13 10° SSW 22:09:49 51° SE 22:17:00 10° NE
Cosmos 2227 Rocket 4.0 22:06:56 10° SW 22:11:20 22° S 22:15:44 10° ESE
SMAP 3.2 22:06:51 10° SSE 22:11:39 83° WSW 22:16:22 10° NNW
Genesis I 3.4 22:08:21 10° SW 22:12:16 70° NW 22:16:07 10° NE
Cosmos 923 Rocket 4.0 22:07:59 10° SSW 22:13:19 84° ESE 22:18:36 10° NNE
ATLAS 3B R/B 2.9 22:06:43 10° WNW 22:13:34 84° SSW 22:20:50 10° SE
Cosmos 1805 3.8 22:09:36 10° SSW 22:13:38 66° W 22:17:36 10° N
Cosmos 1626 Rocket 3.6 22:09:27 10° N 22:13:58 76° E 22:18:31 10° SSE
Cosmos 2297 4.2 22:08:53 10° N 22:14:11 39° ENE 22:19:31 10° SE
Cosmos 1844 Rocket 3.2 22:08:49 10° NW 22:14:25 65° SW 22:20:03 10° SE
ATLAS CENTAUR R/B 2.0 22:10:46 10° NNW 22:15:19 46° NE 22:20:00 10° ESE
Timation 1 Rocket 4.3 22:10:49 10° NNW 22:16:50 71° ENE 22:22:53 10° SE
CZ-4 R/B 4.4 22:12:43 10° SSE 22:17:00 73° ENE 22:21:13 10° N
Cosmos 1680 Rocket 3.6 22:12:36 10° SSW 22:17:59 75° ESE 22:23:20 10° NE
Lacrosse 5 rocket 2.5 22:14:22 10° W 22:18:45 45° NNW 22:23:16 10° NE
Cosmos 2082 Rocket 3.3 22:13:22 10° SW 22:18:46 45° WNW 22:24:06 10° N
IRS-1A Rocket 4.2 22:14:38 10° SSE 22:20:18 80° ENE 22:25:52 10° NNW
Cosmos 1953 Rocket 4.5 22:17:10 10° NNE 22:20:58 29° E 22:24:51 10° SSE
Cosmos 2221 4.4 22:18:31 10° SSE 22:21:11 15° SE 22:23:10 12° E
Cosmos 2263 Rocket 4.0 22:17:41 10° W 22:22:36 30° SSW 22:27:34 10° SE
SPOT 3 Rocket 3.7 22:17:56 10° SSE 22:23:08 55° ENE 22:28:16 10° N
Cosmos 1733 3.2 22:21:23 10° S 22:25:21 77° ESE 22:29:14 10° NNE
Cosmos 44 Rocket 4.5 22:20:54 10° WSW 22:25:46 38° S 22:30:22 11° ESE
SJ-6B 4.0 22:22:44 10° SE 22:26:12 24° E 22:29:39 10° NNE
Timation 2 Rocket 4.3 22:20:24 10° SW 22:26:34 68° WNW 22:32:31 10° NNE
Cosmos 1953 2.5 22:23:11 10° SSW 22:27:17 78° W 22:31:20 10° N
Cosmos 1777 Rocket 4.4 22:23:29 10° N 22:28:21 39° ENE 22:33:15 10° SE
Cosmos 1470 2.7 22:24:46 10° S 22:28:46 76° ESE 22:32:44 10° NNE
Abrixas rocket 4.4 22:27:01 10° NW 22:29:15 17° N 22:31:06 12° NNE
Cosmos 1238 Rocket 4.5 22:29:02 10° NW 22:32:13 35° WSW 22:35:59 10° S
Cosmos 2369 Rocket 3.9 22:34:02 13° E 22:34:02 13° E 22:35:40 10° ESE
CZ-4C R/B 2.8 22:26:46 10° WSW 22:33:25 57° SSE 22:38:11 15° E
ERS-2 3.2 22:29:49 10° S 22:33:29 50° WSW 22:37:08 10° NW
COSMOS 2487 3.4 22:30:05 10° SW 22:33:36 49° WNW 22:37:05 10° N
CENTAUR R/B 3.2 22:27:42 10° N 22:34:45 40° NE 22:41:03 10° ESE
Cosmos 1707 3.6 22:32:39 10° NNE 22:36:08 30° E 22:39:38 10° SSE
Cosmos 2218 Rocket 4.1 22:29:47 10° S 22:36:15 63° ESE 22:42:39 10° NNE
Cosmos 2112 Rocket 4.0 22:30:55 10° SSW 22:36:18 86° ESE 22:41:41 10° NNE
Cosmos 2366 rocket 4.2 22:30:45 10° S 22:37:03 58° ESE 22:43:21 10° NNE
Nadezhda 1 Rocket 4.0 22:31:42 10° NNW 22:37:54 87° WSW 22:44:08 10° SSE
Resurs 01 Rocket 3.1 22:36:04 10° SE 22:39:15 18° E 22:39:46 18° E
Cosmos 1825 Rocket 3.7 22:36:18 10° N 22:40:43 53° E 22:45:10 10° SSE
ALOS 2.3 22:37:02 10° SSE 22:41:46 58° E 22:46:27 10° N
Cosmos 2181 Rocket 4.1 22:35:54 10° NNE 22:41:55 54° E 22:48:04 10° SSE
Cosmos 1484 Rocket 4.4 22:38:52 10° S 22:42:43 41° WSW 22:46:34 10° NW
Cosmos 1340 Rocket 3.4 22:45:25 10° NNE 22:49:15 38° E 22:53:05 10° SSE
YAOGAN 1 3.3 22:47:12 10° S 22:51:34 58° WSW 22:55:53 10° NW
MOS 1 4.3 22:45:47 10° SSE 22:51:37 90° E 22:57:21 10° NNW
USA 186 3.8 22:50:24 10° SE 22:51:44 16° ESE 22:51:44 16° ESE
Cosmos 2297 Rocket 3.9 22:50:39 10° SW 22:55:14 24° SSE 22:59:48 10° ESE
FREGAT/IRIS 2.7 22:54:36 10° SSE 22:57:42 56° ENE 23:00:41 11° N
Lacrosse 4 Rocket 4.3 22:55:53 10° W 22:57:57 13° WNW 23:00:01 10° NW
NOSS 3-2 (A) 3.9 22:50:36 10° NW 22:58:31 89° SSW 23:05:37 10° ESE
H-2A R/B 2.9 22:56:02 10° SSE 22:59:50 49° E 23:03:33 10° N
Cosmos 1908 4.5 22:57:12 10° S 23:00:30 25° ESE 23:01:11 23° E
Cosmos 968 Rocket 3.7 22:55:26 10° NW 23:00:45 77° WSW 23:06:09 10° SSE
Cosmos 1356 Rocket 4.5 23:03:09 26° E 23:03:12 26° E 23:06:43 10° SE
Envisat 4.0 22:59:37 10° SE 23:03:56 26° E 23:04:47 25° ENE
Cosmos 1378 3.3 23:04:38 18° NNE 23:07:15 50° E 23:11:00 10° SSE
SL-8 Rocket 4.1 23:01:03 10° SSW 23:07:28 80° W 23:13:45 10° N
FengYun 1-2 T 4.4 23:03:32 10° SSE 23:09:12 56° ENE 23:14:49 10° N
Meteor 1-29 3.8 23:05:55 10° N 23:09:24 53° WNW 23:12:57 10° SSW
Cosmos 1758 Rocket 3.5 23:07:43 10° N 23:12:14 76° E 23:16:44 10° SSE
Meteor 1-24 Rocket 4.2 23:13:05 26° NE 23:15:16 36° E 23:20:11 10° SSE
Blok-L 3.7 23:09:18 10° NW 23:16:08 62° NNE 23:16:54 41° E
FENGYUN 3A 3.6 23:12:11 10° SSE 23:17:41 90° ESE 23:23:08 10° NNW
SeaSat 1 3.3 23:14:10 13° N 23:18:29 48° WNW 23:23:21 10° SW
Cosmos 1833 4.3 23:13:16 10° SW 23:19:06 71° SE 23:22:08 29° NE
CZ-2C R/B 4.0 23:18:20 19° ESE 23:20:06 23° SE 23:24:10 10° S
USA 238 DEB 4.2 23:13:12 10° WNW 23:20:24 66° SSW 23:27:32 10° ESE
USA 238 4.2 23:13:19 10° WNW 23:20:30 66° SSW 23:27:39 10° ESE
Helios 1B rocket 4.0 23:18:24 10° NNW 23:22:19 36° W 23:26:15 10° SSW
Cosmos 1821 Rocket 4.4 23:16:52 10° S 23:23:06 48° ESE 23:26:00 29° NE
Cosmos 1184 Rocket 3.5 23:19:43 10° NNW 23:23:07 57° WSW 23:26:33 10° S
DMSP B5D2-2 4.0 23:25:07 26° NNE 23:28:14 81° ESE 23:33:35 10° SSW
Nadezhda 3 Rocket 4.5 23:26:43 30° NE 23:28:50 38° E 23:34:31 10° SSE
Cosmos-2242 3.7 23:25:09 10° SSW 23:29:34 56° W 23:33:19 14° N
CZ-4 R/B 4.1 23:27:05 10° S 23:30:04 21° SW 23:33:04 10° WNW
Cosmos 1842 Rocket 3.5 23:26:37 10° S 23:31:05 78° ESE 23:32:48 37° NNE
Cosmos 2278 Rocket 3.2 23:28:27 10° WNW 23:34:00 49° SW 23:39:36 10° SE
Cosmos 1943 Rocket 3.8 23:40:17 18° ESE 23:40:17 18° ESE 23:42:21 10° SE
Cosmos 1898 Rocket 4.1 23:38:26 35° E 23:38:26 35° E 23:42:55 10° SE
Cosmos 1242 Rocket 4.1 23:36:14 10° SSW 23:39:36 34° W 23:42:08 15° NNW
GP-B 3.9 23:37:20 10° NNW 23:41:44 52° W 23:46:13 10° S
Mayak 1.1 23:42:31 12° SE 23:42:58 12° SE 23:44:46 10° SSE
COSMOS 2455 2.8 23:36:59 10° NW 23:43:03 85° NE 23:49:10 10° SE
Cosmos 2219 3.7 23:37:56 10° SSW 23:43:30 50° SE 23:45:32 35° E
Meteor 2-5 Rocket 3.6 23:38:36 10° N 23:44:13 80° ENE 23:49:52 10° SSE
HJ-1C 3.7 23:42:02 10° S 23:45:33 70° WSW 23:47:19 27° NNW
Cosmos 1461 3.5 23:42:38 10° WSW 23:46:47 48° NW 23:47:45 39° N
CZ-4 R/B 4.2 23:45:59 43° E 23:46:58 50° ESE 23:51:38 10° S
deb Kosmos-1763 4.3 23:43:10 10° SSW 23:47:00 70° WNW 23:47:37 57° N
deb Chang Zheng 4 4.2 23:47:46 40° ESE 23:48:13 41° ESE 23:52:27 10° S
Cosmos 1726 3.3 23:44:49 10° S 23:47:47 32° SE 23:47:47 32° SE
Iridium 4 Rocket 3.1 23:46:38 10° S 23:51:28 77° E 23:52:32 52° NNE
CZ-2D R/B 3.2 23:49:30 10° SSE 23:53:30 85° ENE 23:54:15 57° N
ATLAS CENTAUR R/B 2.2 23:49:34 10° WNW 23:54:22 60° SSW 23:59:15 10° SE
